[[{"header":{"parameterUnit":"m.s-1","parameterCategory":1,"la1":30.2991,"la2":30.254,"lo1":-89.0895,"lo2":-89.0444,"dy":0.0017,"dx":0.0017,"nx":28,"ny":28,"refTime":"2025-01-09T09:00:00:Z","depth":0,"parameterNumber":2,"parameterNumberName":"U-component_of_WINDS"},"data":[0,0,0,0,0,0,0,0,0,0,0,0,0,0,0,0,0,0,0,0,0,0,0,0,0,0,0,0,0,0,0,0,0,0,0,0,0,0,0,0,0,0,0,0,0,0,0,0,0,0,0,0,0,0,0,0,0,0,0.4064,0.4064,0,0.4067,0.4067,0.4067,0.4092,0.4092,0.4093,0.4094,0.4094,0.4093,0.4093,0,0,0,0,0,0,0,0,0,0,0,0,0,0.408,0.4079,0.4064,0.4064,0.4064,0.4067,0.4067,0.4067,0.4092,0.4092,0.4093,0.4094,0.4094,0.4093,0.4093,0,0,0,0,0,0,0,0,0,0,0,0,0,0.4076,0.4079,0.4064,0.4077,0.4078,0.4067,0.4067,0.4067,0.4091,0.4092,0.4093,0.4094,0.4094,0.4093,0.4093,0.4068,0,0,0.409,0.4089,0,0,0,0,0,0,0,0,0.4077,0.4076,0.4075,0.4076,0.4077,0.408,0.4072,0.4067,0.4091,0.4086,0.4094,0.4095,0.4088,0.4088,0.4086,0.4068,0.4068,0.409,0.4089,0.4089,0.4089,0,0,0,0,0,0,0,0.4077,0.4076,0.4065,0.4075,0.4076,0.4082,0.4083,0.4071,0.4082,0.4087,0.4089,0.4089,0.4089,0.4087,0.4086,0.4068,0.409,0.4089,0.4088,0.4088,0.403,0.403,0,0,0,0,0,0,0.4075,0.4076,0.4065,0.4065,0.4079,0.4081,0.4082,0.4078,0.4082,0.4084,0.4088,0.409,0.4088,0.4087,0.4087,0.4058,0.4089,0.4088,0.4088,0.4031,0.403,0.4029,0,0,0,0,0,0,0.4076,0.4074,0.4065,0.4071,0.407,0.408,0.4075,0.4078,0.4076,0.4083,0.4085,0.4084,0.4089,0.4088,0.4073,0.4058,0.4088,0.4087,0.4033,0.4031,0.403,0.4,0,0,0,0,0,0,0.4076,0.4074,0.4065,0.4071,0.407,0.4051,0.4075,0.4077,0.4074,0.4077,0.408,0.4081,0.4089,0.4074,0.4072,0.4058,0.4086,0.4034,0.4032,0.403,0.4003,0.3998,0.3994,0,0,0,0,0,0.4076,0.4056,0.4064,0.4063,0.4059,0.405,0.405,0.406,0.4073,0.4064,0.4069,0.4081,0.4061,0.4072,0.407,0.4055,0.4035,0.4033,0.403,0.4005,0.3999,0.3994,0,0,0,0,0,0,0.4047,0.4057,0.4066,0.4047,0.4048,0.4055,0.4043,0.4054,0.405,0.4053,0.4066,0.4066,0.4049,0.4051,0.4064,0.4032,0.405,0.4047,0.4031,0.4026,0.4022,0.4021,0.4085,0,0,0,0,0,0.4039,0.4032,0.4041,0.4023,0.4023,0.4033,0.403,0.4038,0.4039,0.4039,0.4043,0.4042,0.4036,0.4031,0.4026,0.4004,0.4005,0.3993,0.3989,0.3985,0.3982,0.397,0.3965,0.4022,0.4022,0.4022,0,0,0.4021,0.4025,0.402,0.4017,0.4019,0.401,0.4033,0.4023,0.4017,0.4037,0.4023,0.4026,0.4027,0.4008,0.4,0.4009,0.3967,0.3982,0.3979,0.3978,0.3967,0.3962,0.3957,0.402,0.402,0.4021,0,0,0.3984,0.3987,0.3972,0.3974,0.3976,0.3983,0.398,0.3985,0.3988,0.3975,0.399,0.3983,0.3972,0.3972,0.397,0.3935,0.3946,0.3933,0.391,0.3898,0.3894,0.389,0.3876,0.3871,0.393,0.393,0.393,0,0.396,0.3949,0.3963,0.3953,0.3951,0.3971,0.3956,0.3957,0.3957,0.3955,0.3966,0.3952,0.3954,0.3936,0.3927,0.3926,0.3922,0.3931,0.3894,0.389,0.3886,0.3873,0.3868,0.3928,0.3929,0.3929,0.3929,0,0.392,0.3912,0.3901,0.3901,0.3898,0.3886,0.3898,0.3893,0.3903,0.3908,0.3895,0.3898,0.3894,0.389,0.3899,0.3873,0.3879,0.3891,0.3909,0.3879,0.3867,0.3862,0.3926,0.3927,0.3927,0.3928,0,0,0.3862,0.3872,0.3868,0.3868,0.3873,0.3867,0.3856,0.3853,0.3848,0.3848,0.3838,0.383,0.3842,0.384,0.3849,0.3839,0.381,0.3853,0.3853,0.3844,0.3781,0.377,0.3765,0.3819,0.3818,0.3817,0.3781,0,0.3825,0.3806,0.382,0.3798,0.3791,0.3811,0.3801,0.3803,0.3809,0.3803,0.381,0.3802,0.3819,0.3819,0.381,0.3815,0.3798,0.3819,0.3808,0.3808,0.3806,0.3759,0.3747,0.3712,0.3776,0.3776,0.3775,0,0.3779,0.3778,0.3756,0.3764,0.3761,0.3752,0.375,0.3745,0.3748,0.3753,0.3752,0.3764,0.3753,0.3772,0.3757,0.3771,0.3768,0.3771,0.377,0.3767,0.3788,0.3753,0.3702,0.3696,0.3768,0.3769,0.3769,0,0.3737,0.3731,0.3717,0.3717,0.3725,0.3719,0.3722,0.3726,0.3723,0.3722,0.372,0.3718,0.3716,0.3713,0.3724,0.3738,0.3708,0.3728,0.371,0.371,0.3701,0.3701,0.3646,0.3702,0.3702,0.3702,0.3703,0,0.3693,0.3679,0.3698,0.3689,0.3674,0.369,0.3674,0.3679,0.3683,0.3675,0.3693,0.3685,0.3701,0.3695,0.3704,0.3689,0.3689,0.3692,0.3694,0.3689,0.3689,0.3686,0.3688,0.3701,0.3701,0.3702,0.3702,0,0.3643,0.3655,0.3641,0.3651,0.3654,0.3642,0.365,0.3642,0.365,0.364,0.3639,0.3651,0.3645,0.3657,0.3652,0.3658,0.3638,0.3644,0.3636,0.3638,0.3619,0.362,0.3559,0.3551,0.3614,0.3613,0.3613,0,0.3613,0.3602,0.3612,0.3608,0.3611,0.3605,0.3603,0.3619,0.3616,0.3619,0.3611,0.3607,0.3604,0.3593,0.3601,0.3598,0.3604,0.3583,0.3603,0.3599,0.3602,0.3601,0.36,0.3578,0.3577,0.3576,0.3576,0,0.3558,0.3565,0.3562,0.3561,0.3559,0.3558,0.356,0.3556,0.3573,0.3569,0.3563,0.3561,0.3557,0.3552,0.3551,0.3554,0.3567,0.357,0.3565,0.3559,0.3554,0.3555,0.3623,0.357,0.3571,0.3571,0.3572,0.3572,0.3516,0.3508,0.3513,0.3509,0.3512,0.3513,0.3506,0.3514,0.351,0.3509,0.3519,0.3511,0.3515,0.3515,0.3517,0.3511,0.352,0.3514,0.3512,0.351,0.3506,0.3557,0.3511,0.3511,0.3511,0.3511,0.3512,0,0.3461,0.3466,0.3462,0.3464,0.3461,0.3476,0.3478,0.3474,0.3467,0.3471,0.3468,0.3462,0.3458,0.3467,0.3464,0.3458,0.3464,0.3456,0.3456,0.3456,0.3499,0.3502,0.3451,0.3451,0.3451,0.3451,0.3451,0.3451,0.3431,0.3418,0.3426,0.3415,0.342,0.3413,0.3413,0.3414,0.3417,0.341,0.3407,0.3413,0.3418,0.3417,0.3414,0.3416,0.3414,0.3404,0.3408,0.3447,0.3453,0.3459,0.3462,0.3404,0.3404,0.3366,0.3366,0.3366]},{"header":{"parameterUnit":"m.s-1","parameterCategory":1,"la1":30.2991,"la2":30.254,"lo1":-89.0895,"lo2":-89.0444,"dy":0.0017,"dx":0.0017,"nx":28,"ny":28,"refTime":"2025-01-09T09:00:00:Z","depth":0,"parameterNumber":3,"parameterNumberName":"V-component_of_WINDS"},"data":[0,0,0,0,0,0,0,0,0,0,0,0,0,0,0,0,0,0,0,0,0,0,0,0,0,0,0,0,0,0,0,0,0,0,0,0,0,0,0,0,0,0,0,0,0,0,0,0,0,0,0,0,0,0,0,0,0,0,-6.7554,-6.7556,0,-6.7695,-6.7696,-6.7698,-6.7589,-6.7584,-6.758,-6.7575,-6.7715,-6.7722,-6.773,0,0,0,0,0,0,0,0,0,0,0,0,0,-6.7188,-6.7195,-6.7554,-6.7556,-6.7558,-6.7694,-6.7696,-6.7698,-6.759,-6.7584,-6.7579,-6.7573,-6.7712,-6.7721,-6.7731,0,0,0,0,0,0,0,0,0,0,0,0,0,-6.7339,-6.7197,-6.7554,-6.752,-6.7519,-6.7694,-6.7696,-6.7699,-6.7591,-6.7584,-6.7577,-6.7571,-6.7709,-6.7721,-6.7732,-6.7947,0,0,-6.7769,-6.7775,0,0,0,0,0,0,0,0,-6.7331,-6.7353,-6.7523,-6.7523,-6.7521,-6.7617,-6.7618,-6.7782,-6.7593,-6.7563,-6.7575,-6.7567,-6.7688,-6.7701,-6.7743,-6.7954,-6.796,-6.777,-6.7778,-6.7783,-6.7786,0,0,0,0,0,0,0,-6.7321,-6.7346,-6.7609,-6.7526,-6.7525,-6.7497,-6.7511,-6.7649,-6.7663,-6.7565,-6.7558,-6.7576,-6.7686,-6.7731,-6.7745,-6.7962,-6.777,-6.7781,-6.7788,-6.7793,-6.8356,-6.8364,0,0,0,0,0,0,-6.7314,-6.7338,-6.7605,-6.7614,-6.7407,-6.7509,-6.7524,-6.7593,-6.7661,-6.7665,-6.7582,-6.7571,-6.7714,-6.7731,-6.775,-6.8006,-6.7783,-6.7794,-6.7801,-6.8349,-6.8358,-6.8367,0,0,0,0,0,0,-6.7306,-6.7339,-6.7599,-6.7474,-6.7505,-6.7523,-6.7601,-6.76,-6.7645,-6.7674,-6.7675,-6.7627,-6.7709,-6.7732,-6.7899,-6.8009,-6.78,-6.7811,-6.834,-6.8352,-6.8362,-6.8521,0,0,0,0,0,0,-6.7296,-6.7337,-6.7419,-6.7477,-6.7512,-6.7749,-6.7608,-6.7608,-6.7667,-6.7654,-6.7716,-6.7719,-6.7705,-6.7882,-6.7911,-6.8022,-6.782,-6.833,-6.8345,-6.8359,-6.8506,-6.8536,-6.8562,0,0,0,0,0,-6.7284,-6.7457,-6.7424,-6.7457,-6.7616,-6.7755,-6.7775,-6.7757,-6.7676,-6.7759,-6.7778,-6.7717,-6.7993,-6.79,-6.7932,-6.8048,-6.8323,-6.8341,-6.8358,-6.8493,-6.853,-6.8562,0,0,0,0,0,0,-6.741,-6.7464,-6.7428,-6.7626,-6.7687,-6.7737,-6.784,-6.7797,-6.7881,-6.7865,-6.7837,-6.7852,-6.8028,-6.8054,-6.795,-6.826,-6.8145,-6.8169,-6.8236,-6.8272,-6.83,-6.829,-6.783,0,0,0,0,0,-6.7462,-6.7572,-6.7612,-6.7782,-6.7815,-6.7823,-6.7883,-6.7864,-6.7925,-6.795,-6.798,-6.8042,-6.8141,-6.8208,-6.8301,-6.8509,-6.8521,-6.8604,-6.8633,-6.8656,-6.8677,-6.8789,-6.8827,-6.8424,-6.8423,-6.8423,0,0,-6.7568,-6.7611,-6.7682,-6.7809,-6.7854,-6.7967,-6.7845,-6.797,-6.8053,-6.7968,-6.8129,-6.8153,-6.8219,-6.8408,-6.8492,-6.8435,-6.8792,-6.8678,-6.8696,-6.8705,-6.8811,-6.8849,-6.8883,-6.8435,-6.8433,-6.8431,0,0,-6.782,-6.7864,-6.8011,-6.8059,-6.813,-6.8134,-6.817,-6.8227,-6.8241,-6.8401,-6.834,-6.8438,-6.8611,-6.8661,-6.8709,-6.8981,-6.8929,-6.9012,-6.916,-6.927,-6.9302,-6.933,-6.9427,-6.9463,-6.9034,-6.9034,-6.9034,0,-6.7943,-6.8113,-6.8092,-6.8222,-6.8279,-6.821,-6.8358,-6.8405,-6.8503,-6.8544,-6.8479,-6.8695,-6.8734,-6.8934,-6.9001,-6.9042,-6.9081,-6.9005,-6.9299,-6.9327,-6.9353,-6.9446,-6.9482,-6.9044,-6.9043,-6.9042,-6.9041,0,-6.8261,-6.8379,-6.8489,-6.8588,-6.8657,-6.8796,-6.8795,-6.8868,-6.8843,-6.8854,-6.9018,-6.9063,-6.9165,-6.9211,-6.9187,-6.9408,-6.937,-6.9303,-6.9187,-6.9402,-6.9488,-6.9524,-6.9058,-6.9054,-6.9051,-6.9049,0,0,-6.8596,-6.8682,-6.8723,-6.8767,-6.884,-6.8931,-6.9066,-6.9168,-6.9231,-6.93,-6.9413,-6.9561,-6.95,-6.9555,-6.9535,-6.9632,-6.9845,-6.9552,-6.9553,-6.9606,-7.0091,-7.0142,-7.0184,-6.9811,-6.9818,-6.9823,-7.0086,0,-6.8852,-6.909,-6.9075,-6.9298,-6.9407,-6.9343,-6.946,-6.9518,-6.9532,-6.9625,-6.9639,-6.9746,-6.9656,-6.9689,-6.9781,-6.98,-6.9942,-6.978,-6.9914,-6.992,-6.9901,-7.0229,-7.0283,-7.0529,-7.012,-7.0125,-7.013,0,-6.9183,-6.9266,-6.9501,-6.9559,-6.9604,-6.971,-6.9803,-6.9893,-6.9957,-6.996,-7.0022,-6.9987,-7.0122,-7.0003,-7.0189,-7.0079,-7.0133,-7.015,-7.0159,-7.0171,-7.0038,-7.025,-7.0607,-7.0644,-7.0183,-7.0178,-7.0175,0,-6.9405,-6.9576,-6.9738,-6.9778,-6.9849,-6.9926,-6.9959,-7.0015,-7.0077,-7.0157,-7.0197,-7.0292,-7.0343,-7.0416,-7.0408,-7.0321,-7.0597,-7.0476,-7.0603,-7.0604,-7.0664,-7.0661,-7.1035,-7.0698,-7.0698,-7.0697,-7.0696,0,-6.9693,-6.984,-6.9839,-6.994,-7.0101,-7.0082,-7.0242,-7.0266,-7.0317,-7.042,-7.0369,-7.0466,-7.0448,-7.0545,-7.0539,-7.0694,-7.0717,-7.0723,-7.072,-7.0729,-7.0728,-7.0764,-7.0746,-7.0707,-7.0705,-7.0703,-7.0701,0,-6.9969,-6.9975,-7.0148,-7.0202,-7.0219,-7.0336,-7.0382,-7.0476,-7.0486,-7.0616,-7.0646,-7.0661,-7.0773,-7.0771,-7.0897,-7.0893,-7.1084,-7.106,-7.1063,-7.1059,-7.1186,-7.1174,-7.1597,-7.1651,-7.1278,-7.1282,-7.1285,0,-7.0153,-7.0264,-7.0331,-7.0397,-7.0436,-7.0543,-7.0607,-7.0592,-7.066,-7.0741,-7.0826,-7.0933,-7.1018,-7.1199,-7.122,-7.1316,-7.1295,-7.1437,-7.1309,-7.1315,-7.1298,-7.1292,-7.1303,-7.1462,-7.1466,-7.1469,-7.1472,0,-7.0479,-7.0477,-7.0572,-7.0669,-7.0747,-7.0822,-7.0891,-7.0948,-7.094,-7.102,-7.1134,-7.12,-7.133,-7.1437,-7.153,-7.1562,-7.1517,-7.1512,-7.1547,-7.1557,-7.1554,-7.1558,-7.1132,-7.1503,-7.1499,-7.1497,-7.1496,-7.1494,-7.0715,-7.0811,-7.0874,-7.0982,-7.1032,-7.1098,-7.119,-7.1212,-7.1308,-7.1414,-7.1399,-7.1527,-7.1587,-7.1708,-7.1748,-7.1847,-7.1797,-7.1847,-7.186,-7.1872,-7.1887,-7.1539,-7.1864,-7.1863,-7.1862,-7.1861,-7.1861,0,-7.1039,-7.1076,-7.1176,-7.1275,-7.136,-7.1311,-7.1385,-7.1459,-7.1573,-7.1633,-7.1719,-7.1851,-7.1954,-7.1984,-7.2084,-7.2157,-7.2139,-7.2184,-7.2179,-7.2187,-7.1925,-7.1886,-7.2198,-7.2197,-7.2197,-7.2197,-7.2197,-7.2197,-7.1217,-7.1378,-7.1384,-7.1569,-7.1604,-7.1731,-7.1778,-7.1838,-7.1887,-7.2037,-7.2123,-7.2143,-7.2191,-7.2294,-7.2387,-7.2393,-7.2432,-7.2486,-7.2484,-7.2239,-7.2205,-7.2173,-7.2136,-7.2495,-7.2495,-7.2737,-7.274,-7.2741]}]]